Regional Weather Roundup
Issued by NWS

Home | Current Version | Previous Version | Graphics & Text | Print | Product List | Glossary On
Versions: 1 2 3 4 5 6 7 8 9 10 11 12 13 14 15 16 17 18 19 20 21 22 23 24 25 26 27 28 29 30 31 32 33 34 35 36 37 38 39 40 41 42 43 44 45 46 47 48 49 50
000
ASUS43 KIND 030059
RWRIN

WEATHER ROUNDUP FOR INDIANA
NATIONAL WEATHER SERVICE INDIANAPOLIS IN
900 PM EDT TUE SEP 02 2014

NOTE: "FAIR" INDICATES FEW OR NO CLOUDS BELOW 12,000 FEET WITH NO
SIGNIFICANT WEATHER AND/OR OBSTRUCTIONS TO VISIBILITY.

* - STATION DOES NOT REPORT WEATHER SUCH AS PRECIPITATION OR FOG.

+ - STATION NOT QUALITY CONTROLLED BY THE NATIONAL WEATHER SERVICE.
    USE DATA WITH CAUTION...ESPECIALLY DEWPOINT AND RELATIVE
    HUMIDITY OBSERVATIONS.

INZ001>003-010>013-019-020-030200-
NORTHWEST INDIANA

CITY           SKY/WX    TMP DP  RH WIND       PRES   REMARKS
GARY /AIRPORT/ PTCLDY    70  64  83 SE3       29.91R
KNOX *+        PTCLDY    69  64  85 CALM      29.91R
MONTICELLO +   MOCLDY    70  68  95 SW3       29.92R
VALPARAISO     PTCLDY    69  66  90 CALM      29.92R

$$

LMZ046-743>745-030200-
SOUTHERN LAKE MICHIGAN

STATION/POSITION TIME  TEMP WIND        PRES
                       AIR  DIR/SP/G
                 (UTC) (F)  (DEG/KT/KT) (MB)
MICHIGAN CITY    0000   74   50/  5/  6   N/A

$$

INZ004-005-014>016-021>024-030200-
NORTH CENTRAL INDIANA

CITY           SKY/WX    TMP DP  RH WIND       PRES   REMARKS
ELKHART        CLEAR     68  61  77 CALM      29.93
GOSHEN         PTCLDY    68  63  84 CALM      29.93R
SOUTH BEND     CLEAR     70  61  73 CALM      29.93R

$$

INZ006>009-017-018-025>027-030200-
NORTHEAST INDIANA

CITY           SKY/WX    TMP DP  RH WIND       PRES   REMARKS
ANGOLA *+      CLEAR     66  59  77 CALM      29.94R
FORT WAYNE     MOCLDY    72  69  90 SW3       29.94R

$$

INZ028-029-035-036-043>045-051>053-030200-
WEST CENTRAL INDIANA

CITY           SKY/WX    TMP DP  RH WIND       PRES   REMARKS
GREENCASTLE +  CLEAR     68  68 100 CALM      29.97R
LAFAYETTE      MOCLDY    71  69  93 CALM      29.93R
TERRE HAUTE    PTCLDY    70  66  87 CALM      29.95R

$$

INZ030>032-037>040-046>048-054>057-064-065-030200-
CENTRAL INDIANA

CITY           SKY/WX    TMP DP  RH WIND       PRES   REMARKS
COLUMBUS       PTCLDY    72  70  94 CALM      29.97R
FRANKFORT +    MOCLDY    71  71 100 SW5       29.96R
INDIANAPOLIS   PTCLDY    72  66  81 SW5       29.96R
-EAGLE CREEK   PTCLDY    72  66  81 SW3       29.96R
KOKOMO *+      MOCLDY    72  64  78 W5        29.94R
MT COMFORT *+  PTCLDY    68 N/A N/A CALM      29.97R
SHELBYVILLE    CLEAR     71  66  84 SW5       29.96R

$$

INZ033-034-041-042-049-050-058-059-030200-
EAST CENTRAL INDIANA

CITY           SKY/WX    TMP DP  RH WIND       PRES   REMARKS
MUNCIE         PTCLDY    71  66  84 SW5       29.96R

$$

INZ060-061-067>069-081>083-085>088-030200-
SOUTHWEST INDIANA

CITY           SKY/WX    TMP DP  RH WIND       PRES   REMARKS
EVANSVILLE     PTCLDY    76  70  82 N3        29.96R

$$

INZ062-063-066-070>080-084-089>092-030200-
SOUTH CENTRAL AND SOUTHEAST INDIANA

CITY           SKY/WX    TMP DP  RH WIND       PRES   REMARKS
BLOOMINGTON    CLEAR     68  67  96 CALM      29.97R FOG

$$



USA.gov is the U.S. government's official web portal to all federal, state and local government web resources and services.